Weather Roundup
Issued by NWS Springfield, MO

Home | Current Version | Previous Version | Text Only | Print | Product List | Glossary On
Versions: 1 2 3 4 5 6 7 8 9 10 11 12 13 14 15 16 17 18 19 20 21 22 23 24 25 26 27 28 29 30 31 32 33 34 35 36 37 38 39 40 41 42 43 44 45 46 47 48 49 50
000
NZUS99 KSGF 020957
HRRSGF

HOURLY WEATHER
NATIONAL WEATHER SERVICE SPRINGFIELD MO
500 AM CDT MON MAY 02 2016

......SGF CWA......

CITY           SKY/WX    TMP DP  RH WIND       PRES   REMARKS
SPRINGFIELD    CLOUDY    51  46  83 NE3       30.06F
WEST PLAINS    CLOUDY    51  43  74 N7        30.05F
ROLLA          CLOUDY    48  44  86 N5        30.03F

......SURROUNDING SGF CWA......

CITY           SKY/WX    TMP DP  RH WIND       PRES   REMARKS
CHANUTE        CLOUDY    50  44  80 N6        30.11S
PARSONS        CLOUDY    51  46  83 N7        30.12R
COFFEYVILLE    CLOUDY    52  45  77 N6        30.12R
EMPORIA        CLOUDY    47  43  86 N6        30.12F
HARRISON AR    CLOUDY    50  46  86 NW3       30.04F

......KANSAS AND MISSOURI......

CITY           SKY/WX    TMP DP  RH WIND       PRES   REMARKS
KANSAS CTY INT CLOUDY    48  44  86 NW6       30.10F
SEDALIA        CLOUDY    50  46  86 N9        30.08F
ST JOSEPH      CLOUDY    48  45  89 NW6       30.12F
ST LOUIS       CLOUDY    53  46  77 N12       30.02F
SPIRIT OF STL  CLOUDY    52  46  82 NW9G18    30.06S
WICHITA        CLOUDY    48  42  80 N12       30.15S
TOPEKA         CLOUDY    48  43  82 NW9       30.12F
OLATHE         CLOUDY    47  44  90 N6        30.10F

......TENNESSEE......

CITY           SKY/WX    TMP DP  RH WIND       PRES   REMARKS
MEMPHIS        NOT AVBL
NASHVILLE      CLOUDY    67  62  84 NW6       29.98R

......ARKANSAS.......

CITY           SKY/WX    TMP DP  RH WIND       PRES   REMARKS
FAYETTEVILLE   CLOUDY    50  50 100 CALM      30.04F
FT SMITH       CLEAR     53  48  83 W5        30.03F
LITTLE ROCK    TSTM      60  49  66 NW17      30.02R

......OKLAHOMA.......

CITY           SKY/WX    TMP DP  RH WIND       PRES   REMARKS
TULSA          PTCLDY    49  47  93 NW6       30.08F
PONCA CITY     CLOUDY    49  44  83 NW8       30.15R
MCALESTER      PTCLDY    53  50  89 N9        30.08R
OKLAHOMA CITY  CLOUDY    49  43  80 N12       30.12F

......IOWA............

CITY           SKY/WX    TMP DP  RH WIND       PRES   REMARKS
DES MOINES     NOT AVBL
QUAD CITIES    CLOUDY    49  46  90 N6        30.06S FOG

......ILLINOIS........

CITY           SKY/WX    TMP DP  RH WIND       PRES   REMARKS
QUINCY         NOT AVBL
CHICAGO        CLOUDY    45  37  73 NE9       30.03R




USA.gov is the U.S. government's official web portal to all federal, state and local government web resources and services.